When you browse on this site, cookies collect data to enhance your experience and personalize the content and advertising you see.
Visit our Privacy Policy to learn more. By continuing to use the site, you agree to this use of cookies and data.
  • în România
  • Lista ţărilor
  • Pe 7 zile
  • Temperatura apei
  • Hartă satelitară
  • Meteo pe hartă
  • Widget-uri
  • user-avatar
    Intrare

    Meteo pe oră la San Miguel de Tucumán

    Astăzi, 27 Iunie, Joi

    Timp Temperatura Precipitaţii Vânt Presiune Umiditate
    00:00 +9°C° 0 mm 1 m/s 715 mmHg 61%
    01:00 +9°C° 0 mm 1 m/s 715 mmHg 62%
    02:00 +9°C° 0 mm 1 m/s 715 mmHg 62%
    03:00 +8°C° 0 mm 1 m/s 714 mmHg 62%
    04:00 +8°C° 0 mm 1 m/s 713 mmHg 63%
    05:00 +8°C° 0 mm 1 m/s 713 mmHg 63%
    06:00 +8°C° 0 mm 1 m/s 713 mmHg 62%
    07:00 +8°C° 0 mm 1 m/s 714 mmHg 61%
    08:00 +9°C° 0 mm 1 m/s 714 mmHg 59%
    09:00 +11°C° 0 mm 1 m/s 714 mmHg 52%
    10:00 +14°C° 0 mm 1 m/s 714 mmHg 45%
    11:00 +18°C° 0 mm 1 m/s 714 mmHg 38%
    12:00 +19°C° 0 mm 1 m/s 713 mmHg 37%
    13:00 +20°C° 0 mm 1 m/s 712 mmHg 36%
    14:00 +21°C° 0 mm 1 m/s 711 mmHg 34%
    15:00 +20°C° 0 mm 1 m/s 711 mmHg 38%
    16:00 +19°C° 0 mm 1 m/s 711 mmHg 43%
    17:00 +18°C° 0 mm 1 m/s 711 mmHg 47%
    18:00 +16°C° 0 mm 1 m/s 711 mmHg 50%
    19:00 +14°C° 0 mm 1 m/s 711 mmHg 54%
    20:00 +12°C° 0 mm 1 m/s 712 mmHg 57%
    21:00 +12°C° 0 mm 1 m/s 712 mmHg 57%
    22:00 +12°C° 0 mm 1 m/s 712 mmHg 58%
    23:00 +12°C° 0 mm 1 m/s 712 mmHg 58%

    Mâine, 28 Iunie, Vineri

    Timp Temperatura Precipitaţii Vânt Presiune Umiditate
    00:00 +11°C° 0 mm 1 m/s 712 mmHg 60%
    01:00 +11°C° 0 mm 1 m/s 711 mmHg 61%
    02:00 +11°C° 0 mm 1 m/s 711 mmHg 63%
    03:00 +11°C° 0 mm 1 m/s 711 mmHg 63%
    04:00 +11°C° 0 mm 1 m/s 711 mmHg 63%
    05:00 +10°C° 0 mm 1 m/s 711 mmHg 63%
    06:00 +11°C° 0 mm 1 m/s 711 mmHg 61%
    07:00 +11°C° 0 mm 1 m/s 712 mmHg 59%
    08:00 +12°C° 0 mm 1 m/s 712 mmHg 57%
    09:00 +14°C° 0 mm 1 m/s 712 mmHg 51%
    10:00 +18°C° 0 mm 1 m/s 712 mmHg 45%
    11:00 +19°C° 0 mm 2 m/s 713 mmHg 39%
    12:00 +20°C° 0 mm 2 m/s 712 mmHg 37%
    13:00 +21°C° 0 mm 2 m/s 712 mmHg 36%
    14:00 +24°C° 0 mm 2 m/s 712 mmHg 34%
    15:00 +21°C° 0 mm 2 m/s 712 mmHg 38%
    16:00 +20°C° 0 mm 2 m/s 712 mmHg 43%
    17:00 +20°C° 0 mm 1 m/s 712 mmHg 47%
    18:00 +19°C° 0 mm 1 m/s 713 mmHg 50%
    19:00 +16°C° 0 mm 1 m/s 713 mmHg 53%
    20:00 +14°C° 0 mm 1 m/s 714 mmHg 56%
    21:00 +14°C° 0 mm 1 m/s 714 mmHg 57%
    22:00 +14°C° 0 mm 1 m/s 715 mmHg 57%
    23:00 +14°C° 0 mm 1 m/s 715 mmHg 58%

    Poimâine, 29 Iunie, Sâmbătă

    Timp Temperatura Precipitaţii Vânt Presiune Umiditate
    00:00 +13°C° 0 mm 1 m/s 715 mmHg 61%
    01:00 +13°C° 0 mm 1 m/s 714 mmHg 63%
    02:00 +12°C° 0 mm 1 m/s 714 mmHg 65%
    03:00 +12°C° 0 mm 1 m/s 714 mmHg 67%
    04:00 +12°C° 0 mm 1 m/s 714 mmHg 69%
    05:00 +12°C° 0 mm 1 m/s 714 mmHg 71%
    06:00 +12°C° 0 mm 1 m/s 714 mmHg 71%
    07:00 +12°C° 0 mm 1 m/s 715 mmHg 71%
    08:00 +13°C° 0 mm 1 m/s 715 mmHg 70%
    09:00 +15°C° 0 mm 1 m/s 715 mmHg 66%
    10:00 +18°C° 0 mm 1 m/s 716 mmHg 62%
    11:00 +20°C° 0 mm 1 m/s 716 mmHg 58%
    12:00 +20°C° 0 mm 2 m/s 715 mmHg 57%
    13:00 +21°C° 0 mm 2 m/s 715 mmHg 56%
    14:00 +21°C° 0 mm 2 m/s 714 mmHg 55%
    15:00 +20°C° 0 mm 2 m/s 714 mmHg 59%
    16:00 +20°C° 0 mm 2 m/s 715 mmHg 64%
    17:00 +19°C° 0 mm 2 m/s 715 mmHg 68%
    18:00 +18°C° 0 mm 1 m/s 715 mmHg 76%
    19:00 +15°C° 0 mm 1 m/s 716 mmHg 83%
    20:00 +13°C° 0 mm 1 m/s 717 mmHg 91%
    21:00 +13°C° 0 mm 1 m/s 717 mmHg 90%
    22:00 +13°C° 0 mm 1 m/s 718 mmHg 90%
    23:00 +13°C° 0 mm 1 m/s 719 mmHg 89%

    30 Iunie, Duminică

    Timp Temperatura Precipitaţii Vânt Presiune Umiditate
    00:00 +13°C° 0 mm 1 m/s 719 mmHg 90%
    01:00 +13°C° 0 mm 1 m/s 719 mmHg 90%
    02:00 +13°C° 0 mm 1 m/s 719 mmHg 91%
    03:00 +13°C° 0 mm 1 m/s 719 mmHg 91%
    04:00 +12°C° 0 mm 1 m/s 719 mmHg 91%
    05:00 +12°C° 0 mm 1 m/s 719 mmHg 92%
    06:00 +12°C° 0 mm 1 m/s 720 mmHg 89%
    07:00 +12°C° 0 mm 1 m/s 720 mmHg 86%
    08:00 +11°C° 0 mm 0 m/s 721 mmHg 84%
    09:00 +13°C° 0 mm 1 m/s 721 mmHg 79%
    10:00 +14°C° 0 mm 1 m/s 722 mmHg 73%
    11:00 +16°C° 0 mm 2 m/s 722 mmHg 68%
    12:00 +16°C° 0 mm 2 m/s 721 mmHg 67%
    13:00 +16°C° 0 mm 1 m/s 720 mmHg 65%
    14:00 +16°C° 0 mm 1 m/s 720 mmHg 64%
    15:00 +16°C° 0 mm 1 m/s 720 mmHg 65%
    16:00 +16°C° 0 mm 1 m/s 720 mmHg 66%
    17:00 +15°C° 0 mm 1 m/s 720 mmHg 67%
    18:00 +15°C° 0 mm 1 m/s 721 mmHg 68%
    19:00 +14°C° 0 mm 1 m/s 722 mmHg 70%
    20:00 +14°C° 0 mm 1 m/s 722 mmHg 71%
    21:00 +13°C° 0 mm 1 m/s 723 mmHg 72%
    22:00 +13°C° 0 mm 1 m/s 723 mmHg 72%
    23:00 +12°C° 0 mm 1 m/s 723 mmHg 72%

    1 Iulie, Luni

    Timp Temperatura Precipitaţii Vânt Presiune Umiditate
    00:00 +12°C° 0 mm 1 m/s 723 mmHg 72%
    01:00 +12°C° 0 mm 1 m/s 723 mmHg 72%
    02:00 +11°C° 0 mm 1 m/s 723 mmHg 73%
    03:00 +11°C° 0 mm 1 m/s 723 mmHg 73%
    04:00 +11°C° 0 mm 1 m/s 723 mmHg 73%
    05:00 +11°C° 0 mm 1 m/s 723 mmHg 74%
    06:00 +11°C° 0 mm 1 m/s 724 mmHg 74%
    07:00 +10°C° 0 mm 1 m/s 724 mmHg 75%
    08:00 +10°C° 0 mm 1 m/s 725 mmHg 75%
    09:00 +11°C° 0 mm 1 m/s 724 mmHg 70%
    10:00 +13°C° 0 mm 1 m/s 724 mmHg 64%
    11:00 +14°C° 0 mm 1 m/s 724 mmHg 59%
    12:00 +15°C° 0 mm 1 m/s 723 mmHg 55%
    13:00 +15°C° 0 mm 1 m/s 722 mmHg 51%
    14:00 +16°C° 0 mm 1 m/s 721 mmHg 48%
    15:00 +16°C° 0 mm 1 m/s 720 mmHg 50%
    16:00 +15°C° 0 mm 1 m/s 720 mmHg 51%
    17:00 +14°C° 0 mm 2 m/s 719 mmHg 53%
    18:00 +13°C° 0 mm 1 m/s 719 mmHg 56%
    19:00 +12°C° 0 mm 1 m/s 719 mmHg 60%
    20:00 +10°C° 0 mm 1 m/s 718 mmHg 63%
    21:00 +10°C° 0 mm 1 m/s 718 mmHg 65%
    22:00 +10°C° 0 mm 1 m/s 718 mmHg 67%
    23:00 +10°C° 0 mm 1 m/s 717 mmHg 70%

    2 Iulie, Marţi

    Timp Temperatura Precipitaţii Vânt Presiune Umiditate
    00:00 +10°C° 0 mm 1 m/s 717 mmHg 71%
    01:00 +10°C° 0 mm 1 m/s 716 mmHg 71%
    02:00 +10°C° 0 mm 1 m/s 716 mmHg 72%
    03:00 +9°C° 0 mm 1 m/s 716 mmHg 73%
    04:00 +9°C° 0 mm 1 m/s 716 mmHg 74%
    05:00 +9°C° 0 mm 1 m/s 716 mmHg 74%
    06:00 +9°C° 0 mm 1 m/s 716 mmHg 73%
    07:00 +9°C° 0 mm 1 m/s 717 mmHg 71%
    08:00 +9°C° 0 mm 1 m/s 717 mmHg 69%
    09:00 +10°C° 0 mm 2 m/s 718 mmHg 63%
    10:00 +13°C° 0 mm 2 m/s 718 mmHg 58%
    11:00 +15°C° 0 mm 2 m/s 719 mmHg 52%
    12:00 +16°C° 0 mm 2 m/s 719 mmHg 50%
    13:00 +16°C° 0 mm 2 m/s 719 mmHg 48%
    14:00 +17°C° 0 mm 2 m/s 718 mmHg 46%
    15:00 +18°C° 0 mm 1 m/s 718 mmHg 49%
    16:00 +16°C° 0 mm 1 m/s 718 mmHg 52%
    17:00 +14°C° 0 mm 0 m/s 719 mmHg 55%
    18:00 +14°C° 0 mm 0 m/s 719 mmHg 57%
    19:00 +14°C° 0 mm 1 m/s 719 mmHg 59%
    20:00 +13°C° 0 mm 1 m/s 719 mmHg 61%
    21:00 +13°C° 0 mm 1 m/s 719 mmHg 62%
    22:00 +12°C° 0 mm 1 m/s 719 mmHg 63%
    23:00 +12°C° 0 mm 1 m/s 719 mmHg 64%
    Arată mai mult